QPF
0.00 0.00 0.00 0.00 0.00 0.00 0.00 0.00 0.00 0.00 0.00 0.00 0.00 0.01 0.01 0.00 0.00 0.00 0.01 0.03 0.03 0.01 0.00 0.00 0.00 0.00 0.00 0.01 0.02 0.03 0.04 0.04 0.05 0.06 0.04 0.04 0.06 0.06 0.06 0.05 0.04 0.03 0.02 0.02
0.00 0.00 0.00 0.00 0.00 0.00 0.00 0.00 0.00 0.00 0.00 0.00 0.00 0.01 0.01 0.00 0.00 0.00 0.02 0.05 0.04 0.01 0.00 0.00 0.00 0.00 0.00 0.00 0.01 0.03 0.04 0.04 0.04 0.05 0.06 0.06 0.08 0.07 0.07 0.06 0.06 0.03 0.02 0.02
0.00 0.00 0.00 0.00 0.00 0.00 0.00 0.00 0.00 0.00 0.00 0.00 0.00 0.00 0.00 0.00 0.00 0.00 0.00 0.03 0.06 0.02 0.00 0.00 0.00 0.00 0.00 0.00 0.01 0.02 0.04 0.05 0.05 0.07 0.07 0.08 0.10 0.09 0.08 0.09 0.06 0.04 0.02 0.02
0.00 0.00 0.00 0.00 0.00 0.00 0.00 0.00 0.00 0.00 0.00 0.00 0.00 0.00 0.01 0.00 0.00 0.00 0.00 0.01 0.03 0.01 0.01 0.01 0.01 0.00 0.01 0.01 0.02 0.03 0.06 0.06 0.05 0.09 0.10 0.09 0.07 0.08 0.08 0.07 0.06 0.04 0.04 0.03
0.00 0.00 0.00 0.00 0.00 0.00 0.00 0.00 0.00 0.00 0.00 0.00 0.00 0.00 0.01 0.01 0.01 0.00 0.00 0.00 0.00 0.00 0.00 0.02 0.02 0.01 0.01 0.01 0.02 0.04 0.08 0.09 0.07 0.07 0.10 0.09 0.10 0.11 0.10 0.08 0.09 0.06 0.04 0.03
0.00 0.00 0.00 0.00 0.00 0.00 0.00 0.00 0.00 0.00 0.00 0.00 0.00 0.00 0.01 0.01 0.01 0.01 0.00 0.00 0.01 0.00 0.00 0.00 0.01 0.01 0.01 0.02 0.03 0.05 0.08 0.09 0.07 0.06 0.06 0.09 0.11 0.11 0.11 0.10 0.09 0.06 0.05 0.04
0.00 0.00 0.00 0.00 0.00 0.00 0.00 0.00 0.00 0.00 0.00 0.00 0.00 0.00 0.00 0.01 0.02 0.01 0.00 0.00 0.01 0.01 0.00 0.00 0.00 0.01 0.01 0.02 0.03 0.04 0.06 0.08 0.07 0.06 0.07 0.08 0.09 0.10 0.10 0.09 0.08 0.07 0.06 0.05
0.00 0.00 0.00 0.00 0.00 0.00 0.00 0.00 0.00 0.00 0.00 0.01 0.00 0.01 0.01 0.00 0.01 0.01 0.00 0.00 0.00 0.00 0.00 0.00 0.01 0.02 0.01 0.01 0.02 0.02 0.04 0.05 0.07 0.07 0.09 0.09 0.10 0.10 0.10 0.10 0.08 0.08 0.05 0.04
0.00 0.00 0.00 0.00 0.00 0.00 0.00 0.00 0.00 0.00 0.01 0.02 0.02 0.02 0.02 0.01 0.00 0.00 0.00 0.00 0.00 0.00 0.00 0.00 0.01 0.02 0.01 0.01 0.01 0.01 0.02 0.04 0.07 0.07 0.09 0.09 0.08 0.08 0.08 0.07 0.09 0.07 0.06 0.05
0.00 0.00 0.00 0.00 0.00 0.00 0.00 0.00 0.00 0.00 0.01 0.02 0.02 0.01 0.02 0.03 0.01 0.00 0.00 0.00 0.00 0.00 0.00 0.01 0.01 0.01 0.01 0.01 0.01 0.01 0.01 0.03 0.04 0.06 0.07 0.06 0.06 0.07 0.06 0.06 0.07 0.08 0.09 0.09
0.00 0.00 0.00 0.00 0.00 0.00 0.00 0.00 0.00 0.00 0.01 0.02 0.04 0.03 0.02 0.03 0.01 0.00 0.00 0.00 0.00 0.00 0.00 0.01 0.01 0.01 0.01 0.01 0.02 0.02 0.02 0.03 0.04 0.05 0.05 0.06 0.07 0.07 0.06 0.06 0.07 0.09 0.12 0.12
0.00 0.00 0.00 0.00 0.00 0.00 0.00 0.00 0.00 0.00 0.00 0.01 0.06 0.05 0.03 0.02 0.00 0.00 0.00 0.00 0.00 0.00 0.00 0.01 0.02 0.01 0.01 0.01 0.02 0.03 0.03 0.04 0.05 0.06 0.06 0.06 0.07 0.09 0.07 0.07 0.08 0.09 0.09 0.08
0.00 0.01 0.01 0.01 0.00 0.00 0.00 0.00 0.00 0.00 0.00 0.00 0.02 0.05 0.04 0.02 0.00 0.00 0.00 0.01 0.00 0.00 0.00 0.02 0.04 0.02 0.01 0.01 0.02 0.03 0.04 0.06 0.08 0.07 0.07 0.08 0.07 0.08 0.08 0.08 0.08 0.08 0.08 0.08
0.00 0.00 0.01 0.02 0.00 0.00 0.00 0.00 0.00 0.00 0.00 0.00 0.01 0.04 0.04 0.02 0.01 0.00 0.00 0.00 0.00 0.00 0.00 0.02 0.03 0.02 0.01 0.01 0.02 0.03 0.04 0.06 0.08 0.10 0.10 0.09 0.08 0.07 0.07 0.08 0.08 0.07 0.06 0.06
0.00 0.00 0.00 0.01 0.01 0.00 0.00 0.00 0.00 0.00 0.00 0.00 0.01 0.03 0.04 0.03 0.01 0.00 0.00 0.00 0.00 0.01 0.01 0.01 0.02 0.03 0.03 0.02 0.03 0.03 0.04 0.04 0.06 0.09 0.11 0.12 0.11 0.10 0.09 0.08 0.07 0.07 0.07 0.07
0.00 0.01 0.01 0.01 0.01 0.01 0.00 0.00 0.00 0.00 0.00 0.00 0.01 0.03 0.02 0.01 0.00 0.00 0.00 0.00 0.00 0.01 0.01 0.01 0.02 0.03 0.03 0.03 0.04 0.05 0.05 0.04 0.04 0.07 0.09 0.12 0.13 0.14 0.11 0.07 0.07 0.09 0.10 0.10
0.01 0.01 0.02 0.01 0.01 0.01 0.01 0.00 0.00 0.00 0.00 0.00 0.01 0.02 0.01 0.01 0.00 0.00 0.00 0.00 0.00 0.00 0.01 0.01 0.03 0.04 0.04 0.04 0.04 0.05 0.05 0.05 0.04 0.05 0.06 0.11 0.12 0.13 0.12 0.09 0.08 0.09 0.10 0.09
0.01 0.02 0.02 0.02 0.02 0.01 0.00 0.00 0.00 0.00 0.01 0.01 0.01 0.01 0.01 0.01 0.00 0.00 0.00 0.00 0.01 0.01 0.00 0.01 0.02 0.03 0.04 0.06 0.05 0.05 0.05 0.04 0.04 0.05 0.07 0.09 0.12 0.12 0.13 0.14 0.11 0.11 0.09 0.07
0.01 0.02 0.02 0.03 0.04 0.02 0.01 0.00 0.00 0.00 0.02 0.02 0.02 0.03 0.02 0.01 0.00 0.01 0.00 0.00 0.01 0.01 0.00 0.00 0.01 0.03 0.05 0.05 0.06 0.05 0.04 0.04 0.04 0.05 0.06 0.06 0.08 0.09 0.11 0.12 0.11 0.10 0.09 0.07
0.01 0.01 0.02 0.03 0.04 0.04 0.03 0.01 0.01 0.01 0.04 0.01 0.01 0.02 0.03 0.04 0.02 0.03 0.01 0.00 0.00 0.00 0.00 0.00 0.00 0.01 0.04 0.06 0.06 0.05 0.04 0.03 0.03 0.03 0.04 0.05 0.06 0.07 0.08 0.08 0.09 0.10 0.10 0.08
0.02 0.02 0.02 0.02 0.04 0.07 0.05 0.02 0.01 0.03 0.05 0.02 0.01 0.02 0.04 0.06 0.05 0.04 0.02 0.00 0.00 0.00 0.00 0.01 0.01 0.02 0.04 0.05 0.06 0.06 0.04 0.03 0.03 0.03 0.04 0.04 0.05 0.07 0.09 0.09 0.09 0.08 0.08 0.09
0.04 0.05 0.05 0.05 0.06 0.10 0.05 0.03 0.04 0.05 0.04 0.02 0.03 0.02 0.04 0.04 0.02 0.02 0.03 0.02 0.00 0.01 0.01 0.01 0.01 0.02 0.03 0.04 0.05 0.05 0.04 0.03 0.04 0.05 0.05 0.05 0.05 0.05 0.06 0.09 0.08 0.08 0.09 0.08
0.05 0.07 0.09 0.10 0.10 0.09 0.04 0.04 0.03 0.03 0.03 0.03 0.01 0.01 0.03 0.07 0.06 0.02 0.03 0.04 0.02 0.01 0.01 0.01 0.02 0.03 0.03 0.03 0.03 0.04 0.05 0.06 0.06 0.07 0.08 0.09 0.08 0.07 0.07 0.07 0.06 0.07 0.09 0.09
0.06 0.04 0.07 0.11 0.10 0.06 0.04 0.05 0.04 0.02 0.01 0.04 0.02 0.02 0.04 0.06 0.04 0.02 0.02 0.02 0.03 0.03 0.02 0.03 0.04 0.05 0.05 0.04 0.04 0.05 0.06 0.06 0.07 0.07 0.08 0.11 0.11 0.09 0.08 0.08 0.07 0.07 0.07 0.08
0.06 0.04 0.07 0.10 0.10 0.09 0.05 0.04 0.04 0.02 0.01 0.03 0.03 0.03 0.04 0.03 0.04 0.04 0.03 0.03 0.04 0.05 0.04 0.04 0.05 0.06 0.05 0.04 0.05 0.05 0.05 0.05 0.05 0.04 0.06 0.08 0.09 0.10 0.10 0.08 0.07 0.08 0.10 0.11
0.06 0.05 0.09 0.13 0.09 0.07 0.06 0.04 0.03 0.03 0.03 0.02 0.03 0.05 0.04 0.03 0.04 0.05 0.04 0.04 0.04 0.05 0.04 0.03 0.04 0.05 0.05 0.06 0.06 0.06 0.06 0.06 0.05 0.05 0.06 0.07 0.08 0.09 0.09 0.09 0.08 0.09 0.10 0.11
MSLP
1005.23 1005.57 1005.66 1005.55 1005.31 1005.02 1004.76 1004.59 1004.51 1004.50 1004.49 1004.42 1004.25 1003.94 1003.52 1003.04 1002.58 1002.25 1002.10 1002.19 1002.53 1003.08 1003.78 1004.56 1005.33 1006.04 1006.66 1007.18 1007.64 1008.07 1008.50 1008.96 1009.45 1009.97 1010.49 1010.97 1011.40 1011.75 1012.02 1012.25 1012.45 1012.66 1012.92 1013.22
1005.41 1005.56 1005.48 1005.23 1004.91 1004.62 1004.43 1004.37 1004.44 1004.57 1004.69 1004.70 1004.56 1004.23 1003.74 1003.17 1002.61 1002.17 1001.93 1001.95 1002.24 1002.75 1003.43 1004.18 1004.93 1005.62 1006.21 1006.73 1007.20 1007.66 1008.14 1008.68 1009.27 1009.88 1010.47 1011.00 1011.45 1011.78 1012.02 1012.18 1012.31 1012.47 1012.67 1012.95
1005.39 1005.36 1005.13 1004.79 1004.44 1004.20 1004.11 1004.21 1004.45 1004.75 1004.99 1005.08 1004.96 1004.59 1004.02 1003.34 1002.66 1002.10 1001.76 1001.70 1001.93 1002.40 1003.04 1003.77 1004.48 1005.14 1005.72 1006.22 1006.69 1007.17 1007.70 1008.31 1008.97 1009.66 1010.32 1010.91 1011.39 1011.73 1011.95 1012.07 1012.16 1012.27 1012.44 1012.70
1005.17 1005.00 1004.66 1004.28 1003.97 1003.82 1003.89 1004.18 1004.61 1005.07 1005.43 1005.58 1005.45 1005.03 1004.36 1003.54 1002.72 1002.03 1001.57 1001.42 1001.58 1002.00 1002.61 1003.31 1004.00 1004.64 1005.19 1005.68 1006.14 1006.63 1007.19 1007.84 1008.56 1009.31 1010.04 1010.69 1011.21 1011.58 1011.80 1011.92 1012.00 1012.09 1012.24 1012.48
1004.78 1004.51 1004.13 1003.77 1003.54 1003.54 1003.80 1004.29 1004.91 1005.53 1005.99 1006.18 1006.03 1005.52 1004.73 1003.76 1002.79 1001.95 1001.37 1001.12 1001.21 1001.58 1002.16 1002.83 1003.51 1004.13 1004.67 1005.15 1005.60 1006.09 1006.66 1007.33 1008.08 1008.88 1009.66 1010.36 1010.93 1011.34 1011.60 1011.74 1011.82 1011.91 1012.06 1012.30
1004.23 1003.92 1003.56 1003.27 1003.18 1003.36 1003.82 1004.51 1005.31 1006.06 1006.60 1006.81 1006.62 1006.02 1005.10 1003.98 1002.86 1001.88 1001.18 1000.83 1000.85 1001.18 1001.73 1002.39 1003.06 1003.67 1004.21 1004.67 1005.11 1005.58 1006.14 1006.81 1007.57 1008.39 1009.20 1009.94 1010.56 1011.02 1011.32 1011.50 1011.62 1011.73 1011.88 1012.12
1003.57 1003.26 1002.97 1002.80 1002.87 1003.23 1003.89 1004.76 1005.70 1006.55 1007.15 1007.36 1007.12 1006.44 1005.41 1004.17 1002.92 1001.82 1001.02 1000.60 1000.55 1000.84 1001.37 1002.03 1002.70 1003.31 1003.84 1004.29 1004.72 1005.17 1005.70 1006.33 1007.08 1007.88 1008.70 1009.47 1010.12 1010.62 1010.98 1011.21 1011.37 1011.51 1011.68 1011.93
1002.84 1002.58 1002.37 1002.34 1002.56 1003.09 1003.90 1004.91 1005.96 1006.88 1007.50 1007.70 1007.43 1006.70 1005.60 1004.29 1002.97 1001.80 1000.94 1000.46 1000.38 1000.64 1001.15 1001.80 1002.46 1003.08 1003.60 1004.05 1004.45 1004.86 1005.35 1005.93 1006.63 1007.40 1008.19 1008.95 1009.62 1010.16 1010.56 1010.84 1011.04 1011.22 1011.41 1011.67
1002.12 1001.92 1001.81 1001.89 1002.24 1002.89 1003.80 1004.87 1005.97 1006.91 1007.54 1007.75 1007.47 1006.73 1005.63 1004.32 1002.99 1001.83 1000.96 1000.46 1000.36 1000.60 1001.10 1001.73 1002.39 1002.99 1003.51 1003.93 1004.30 1004.67 1005.09 1005.61 1006.23 1006.94 1007.68 1008.41 1009.07 1009.62 1010.06 1010.38 1010.63 1010.84 1011.06 1011.33
1001.51 1001.38 1001.35 1001.51 1001.92 1002.61 1003.54 1004.61 1005.69 1006.60 1007.22 1007.43 1007.17 1006.49 1005.46 1004.23 1002.99 1001.89 1001.06 1000.60 1000.50 1000.73 1001.21 1001.82 1002.46 1003.04 1003.53 1003.92 1004.25 1004.57 1004.92 1005.36 1005.89 1006.50 1007.17 1007.84 1008.47 1009.02 1009.48 1009.84 1010.13 1010.38 1010.64 1010.92
1001.14 1001.05 1001.06 1001.25 1001.66 1002.31 1003.17 1004.15 1005.13 1005.97 1006.54 1006.75 1006.55 1005.96 1005.08 1004.01 1002.92 1001.96 1001.24 1000.84 1000.78 1001.01 1001.46 1002.03 1002.63 1003.17 1003.63 1003.98 1004.26 1004.52 1004.80 1005.14 1005.57 1006.08 1006.66 1007.25 1007.83 1008.37 1008.83 1009.22 1009.56 1009.86 1010.16 1010.48
1001.09 1001.03 1001.05 1001.21 1001.54 1002.07 1002.77 1003.58 1004.39 1005.09 1005.59 1005.78 1005.65 1005.20 1004.50 1003.64 1002.77 1002.00 1001.44 1001.14 1001.12 1001.35 1001.78 1002.30 1002.84 1003.33 1003.74 1004.05 1004.28 1004.48 1004.68 1004.94 1005.27 1005.67 1006.15 1006.66 1007.19 1007.69 1008.16 1008.58 1008.96 1009.33 1009.68 1010.05
1001.43 1001.38 1001.37 1001.45 1001.66 1002.00 1002.46 1003.02 1003.60 1004.11 1004.48 1004.65 1004.57 1004.26 1003.76 1003.15 1002.52 1001.98 1001.59 1001.41 1001.45 1001.69 1002.08 1002.55 1003.03 1003.46 1003.81 1004.08 1004.27 1004.41 1004.56 1004.73 1004.97 1005.28 1005.66 1006.10 1006.56 1007.04 1007.51 1007.96 1008.40 1008.83 1009.26 1009.70
1002.14 1002.08 1002.03 1002.00 1002.03 1002.13 1002.31 1002.57 1002.86 1003.13 1003.34 1003.44 1003.40 1003.21 1002.91 1002.54 1002.16 1001.85 1001.65 1001.59 1001.70 1001.96 1002.32 1002.74 1003.15 1003.53 1003.84 1004.06 1004.22 1004.33 1004.42 1004.54 1004.70 1004.93 1005.23 1005.59 1006.01 1006.46 1006.94 1007.43 1007.93 1008.43 1008.94 1009.46
1003.10 1003.04 1002.93 1002.78 1002.61 1002.46 1002.34 1002.26 1002.24 1002.24 1002.26 1002.25 1002.21 1002.12 1001.99 1001.83 1001.69 1001.59 1001.57 1001.65 1001.84 1002.12 1002.46 1002.84 1003.21 1003.54 1003.81 1004.01 1004.14 1004.23 1004.30 1004.38 1004.49 1004.66 1004.89 1005.20 1005.57 1006.01 1006.50 1007.02 1007.58 1008.16 1008.75 1009.34
1004.13 1004.07 1003.91 1003.64 1003.29 1002.88 1002.46 1002.07 1001.73 1001.46 1001.27 1001.14 1001.06 1001.03 1001.04 1001.06 1001.13 1001.23 1001.39 1001.60 1001.86 1002.18 1002.52 1002.88 1003.22 1003.53 1003.78 1003.97 1004.10 1004.18 1004.24 1004.29 1004.37 1004.49 1004.68 1004.94 1005.28 1005.71 1006.20 1006.76 1007.37 1008.01 1008.66 1009.31
1005.02 1004.96 1004.75 1004.39 1003.87 1003.25 1002.57 1001.90 1001.28 1000.76 1000.37 1000.11 1000.00 1000.00 1000.11 1000.29 1000.53 1000.81 1001.13 1001.46 1001.82 1002.19 1002.56 1002.92 1003.26 1003.55 1003.80 1003.99 1004.12 1004.21 1004.26 1004.31 1004.36 1004.45 1004.61 1004.84 1005.15 1005.57 1006.07 1006.65 1007.29 1007.96 1008.65 1009.34
1005.56 1005.50 1005.25 1004.81 1004.18 1003.39 1002.52 1001.63 1000.80 1000.09 999.55 999.20 999.04 999.08 999.27 999.58 999.97 1000.41 1000.88 1001.34 1001.80 1002.24 1002.66 1003.04 1003.39 1003.69 1003.95 1004.14 1004.28 1004.37 1004.42 1004.45 1004.49 1004.56 1004.68 1004.88 1005.18 1005.58 1006.08 1006.66 1007.31 1008.00 1008.70 1009.38
1005.65 1005.57 1005.29 1004.79 1004.09 1003.21 1002.22 1001.21 1000.25 999.43 998.80 998.41 998.25 998.33 998.60 999.03 999.56 1000.15 1000.75 1001.35 1001.91 1002.43 1002.90 1003.32 1003.69 1004.01 1004.27 1004.46 1004.60 1004.68 1004.72 1004.73 1004.74 1004.78 1004.88 1005.05 1005.33 1005.71 1006.20 1006.77 1007.41 1008.09 1008.76 1009.41
1005.32 1005.18 1004.87 1004.34 1003.61 1002.71 1001.69 1000.64 999.66 998.82 998.19 997.81 997.69 997.83 998.20 998.74 999.40 1000.12 1000.85 1001.56 1002.23 1002.83 1003.36 1003.82 1004.21 1004.54 1004.79 1004.97 1005.09 1005.14 1005.15 1005.12 1005.10 1005.11 1005.17 1005.32 1005.57 1005.93 1006.40 1006.96 1007.58 1008.22 1008.86 1009.45
1004.68 1004.49 1004.13 1003.59 1002.87 1002.00 1001.03 1000.05 999.13 998.35 997.80 997.49 997.46 997.70 998.16 998.81 999.58 1000.42 1001.26 1002.07 1002.82 1003.49 1004.07 1004.56 1004.96 1005.27 1005.51 1005.65 1005.73 1005.73 1005.69 1005.61 1005.54 1005.51 1005.54 1005.66 1005.89 1006.24 1006.69 1007.23 1007.82 1008.43 1009.02 1009.55
1003.97 1003.69 1003.30 1002.77 1002.10 1001.31 1000.45 999.60 998.81 998.18 997.76 997.58 997.67 998.01 998.58 999.32 1000.18 1001.09 1002.01 1002.89 1003.69 1004.40 1005.01 1005.51 1005.91 1006.20 1006.39 1006.48 1006.49 1006.43 1006.32 1006.19 1006.06 1005.98 1005.98 1006.08 1006.29 1006.63 1007.07 1007.60 1008.18 1008.76 1009.31 1009.79
1003.39 1003.04 1002.63 1002.12 1001.53 1000.86 1000.16 999.48 998.89 998.44 998.19 998.16 998.37 998.82 999.46 1000.27 1001.18 1002.13 1003.09 1003.99 1004.82 1005.54 1006.15 1006.64 1007.00 1007.25 1007.38 1007.41 1007.35 1007.22 1007.04 1006.84 1006.67 1006.55 1006.51 1006.60 1006.81 1007.14 1007.59 1008.12 1008.69 1009.26 1009.79 1010.24
1003.12 1002.72 1002.30 1001.85 1001.36 1000.84 1000.33 999.85 999.47 999.21 999.13 999.25 999.57 1000.09 1000.79 1001.62 1002.53 1003.48 1004.42 1005.31 1006.12 1006.82 1007.40 1007.85 1008.17 1008.37 1008.44 1008.40 1008.27 1008.07 1007.83 1007.58 1007.36 1007.21 1007.17 1007.25 1007.47 1007.82 1008.28 1008.83 1009.41 1009.99 1010.52 1010.97
1003.21 1002.80 1002.41 1002.04 1001.67 1001.33 1001.01 1000.74 1000.55 1000.48 1000.56 1000.79 1001.19 1001.75 1002.44 1003.24 1004.11 1005.01 1005.89 1006.72 1007.48 1008.13 1008.67 1009.07 1009.34 1009.48 1009.50 1009.41 1009.22 1008.97 1008.69 1008.41 1008.17 1008.02 1007.98 1008.07 1008.31 1008.69 1009.18 1009.76 1010.36 1010.96 1011.51 1011.97
1003.57 1003.19 1002.88 1002.62 1002.41 1002.24 1002.11 1002.03 1002.03 1002.11 1002.31 1002.61 1003.05 1003.60 1004.25 1004.98 1005.77 1006.57 1007.36 1008.11 1008.79 1009.37 1009.85 1010.21 1010.43 1010.53 1010.51 1010.39 1010.17 1009.90 1009.61 1009.32 1009.10 1008.96 1008.95 1009.07 1009.35 1009.76 1010.29 1010.89 1011.53 1012.15 1012.72 1013.20
Thickness
5781 5773 5773 5786 5798 5805 5812 5814 5817 5833 5850 5838 5827 5825 5834 5846 5846 5842 5838 5833 5826 5825 5827 5826 5821 5817 5811 5805 5799 5793 5788 5784 5779 5774 5771 5768 5766 5767 5767 5767 5765 5763 5761 5760
5766 5766 5786 5799 5805 5804 5804 5805 5814 5833 5848 5837 5825 5822 5834 5843 5844 5844 5838 5832 5826 5822 5823 5821 5818 5814 5809 5803 5797 5792 5787 5783 5779 5775 5772 5770 5768 5765 5766 5766 5765 5762 5761 5760
5761 5780 5793 5793 5794 5794 5799 5802 5811 5820 5833 5836 5821 5811 5823 5838 5846 5846 5841 5836 5829 5824 5820 5819 5815 5812 5808 5802 5797 5793 5788 5783 5779 5776 5771 5768 5765 5763 5762 5761 5761 5762 5761 5760
5766 5785 5791 5787 5789 5793 5788 5812 5817 5818 5811 5807 5812 5789 5812 5827 5830 5835 5835 5834 5831 5830 5826 5821 5815 5810 5807 5803 5799 5794 5788 5783 5779 5775 5770 5765 5760 5757 5760 5761 5761 5761 5762 5761
5765 5780 5783 5781 5790 5797 5797 5815 5813 5811 5805 5801 5807 5791 5806 5825 5818 5827 5834 5836 5836 5835 5831 5824 5818 5813 5809 5805 5800 5794 5788 5783 5779 5775 5771 5767 5763 5761 5761 5762 5761 5760 5760 5760
5772 5790 5790 5790 5800 5803 5805 5804 5802 5801 5794 5775 5795 5790 5793 5814 5820 5825 5834 5838 5838 5837 5833 5827 5821 5815 5809 5806 5801 5795 5788 5782 5779 5775 5772 5768 5764 5762 5760 5759 5758 5758 5759 5759
5755 5773 5789 5797 5787 5793 5793 5778 5761 5757 5759 5769 5802 5795 5798 5823 5832 5833 5833 5837 5839 5838 5832 5825 5818 5813 5809 5805 5800 5795 5788 5782 5779 5775 5772 5769 5766 5764 5762 5760 5759 5759 5758 5758
5739 5747 5776 5788 5784 5780 5782 5780 5759 5749 5753 5770 5790 5786 5804 5832 5839 5841 5841 5841 5839 5837 5833 5827 5821 5816 5810 5806 5801 5796 5789 5783 5780 5776 5772 5770 5767 5765 5764 5763 5762 5761 5761 5761
5747 5750 5781 5790 5795 5789 5777 5779 5793 5778 5774 5764 5777 5792 5809 5830 5832 5834 5835 5835 5834 5833 5832 5828 5823 5818 5813 5808 5803 5797 5791 5785 5781 5777 5773 5770 5768 5766 5765 5764 5764 5763 5762 5762
5759 5751 5772 5785 5790 5790 5792 5789 5781 5771 5752 5749 5763 5777 5790 5806 5816 5824 5826 5827 5829 5831 5829 5826 5822 5818 5814 5810 5804 5799 5793 5787 5782 5778 5775 5772 5769 5767 5766 5765 5763 5763 5762 5760
5758 5747 5760 5772 5767 5770 5777 5779 5780 5778 5774 5756 5749 5769 5813 5813 5819 5821 5823 5826 5827 5826 5826 5823 5821 5818 5815 5810 5805 5798 5793 5788 5783 5779 5776 5773 5770 5768 5766 5764 5764 5762 5760 5758
5754 5751 5746 5761 5782 5790 5784 5781 5780 5763 5763 5769 5756 5764 5811 5813 5822 5824 5823 5824 5825 5824 5824 5822 5818 5816 5812 5807 5803 5798 5793 5789 5785 5781 5776 5773 5771 5769 5766 5764 5763 5762 5759 5757
5744 5738 5728 5738 5756 5772 5773 5781 5786 5783 5776 5769 5761 5763 5802 5806 5814 5820 5820 5819 5819 5818 5818 5818 5814 5811 5808 5805 5801 5797 5793 5789 5786 5781 5776 5772 5771 5768 5766 5764 5762 5760 5758 5756
5743 5734 5729 5726 5743 5760 5761 5772 5783 5780 5766 5767 5770 5766 5781 5794 5802 5810 5813 5815 5814 5812 5812 5810 5805 5804 5804 5802 5798 5795 5791 5789 5785 5780 5776 5772 5770 5768 5766 5764 5762 5759 5757 5754
5734 5725 5734 5745 5756 5763 5762 5768 5778 5777 5779 5775 5778 5777 5780 5787 5799 5807 5809 5809 5808 5805 5804 5802 5799 5799 5798 5797 5794 5792 5789 5786 5783 5778 5774 5772 5770 5768 5765 5762 5760 5758 5756 5754
5724 5720 5727 5732 5748 5754 5757 5767 5775 5780 5784 5785 5785 5782 5798 5798 5802 5803 5803 5802 5799 5797 5797 5798 5796 5794 5792 5791 5790 5788 5785 5782 5780 5775 5772 5771 5768 5765 5762 5760 5758 5755 5753 5751
5711 5710 5711 5718 5737 5740 5738 5761 5771 5777 5786 5785 5777 5784 5794 5791 5792 5795 5797 5797 5794 5794 5793 5792 5792 5790 5789 5789 5787 5783 5781 5779 5775 5772 5770 5767 5764 5761 5759 5758 5754 5751 5749 5748
5698 5699 5705 5713 5720 5708 5748 5784 5785 5780 5783 5789 5788 5789 5791 5790 5791 5797 5797 5791 5788 5789 5788 5788 5788 5787 5787 5786 5784 5781 5778 5774 5771 5768 5765 5763 5760 5757 5756 5754 5751 5748 5747 5745
5701 5694 5698 5704 5703 5717 5749 5771 5776 5770 5766 5781 5780 5781 5785 5787 5784 5782 5789 5789 5786 5785 5785 5784 5784 5783 5781 5780 5779 5776 5772 5769 5766 5763 5761 5760 5758 5755 5752 5749 5747 5746 5744 5742
5700 5697 5692 5697 5695 5698 5731 5762 5777 5770 5750 5774 5777 5774 5776 5776 5760 5761 5778 5783 5781 5781 5780 5779 5779 5778 5774 5774 5774 5769 5765 5763 5761 5760 5759 5758 5755 5752 5748 5746 5745 5744 5742 5739
5683 5685 5685 5690 5695 5711 5737 5756 5764 5738 5738 5766 5773 5771 5770 5765 5763 5766 5773 5774 5774 5773 5773 5773 5771 5768 5767 5768 5767 5762 5759 5758 5758 5758 5756 5754 5751 5748 5746 5744 5742 5740 5738 5735
5679 5680 5681 5686 5686 5697 5732 5743 5738 5739 5756 5760 5762 5764 5763 5761 5762 5764 5765 5763 5763 5763 5764 5764 5761 5760 5761 5761 5759 5755 5753 5755 5756 5754 5751 5748 5746 5745 5743 5739 5738 5736 5733 5730
5679 5684 5688 5688 5691 5707 5722 5728 5736 5746 5747 5751 5752 5754 5755 5753 5751 5752 5753 5752 5753 5754 5755 5755 5753 5752 5753 5753 5752 5749 5749 5751 5749 5747 5744 5742 5740 5739 5738 5735 5732 5730 5728 5726
5675 5686 5684 5684 5692 5702 5712 5724 5733 5739 5741 5745 5745 5746 5746 5743 5743 5742 5743 5743 5744 5745 5745 5745 5744 5742 5742 5745 5745 5744 5745 5744 5742 5739 5737 5735 5733 5731 5729 5728 5726 5723 5722 5721
5664 5675 5676 5676 5685 5694 5703 5713 5720 5728 5733 5733 5735 5738 5738 5736 5734 5734 5734 5735 5735 5735 5735 5735 5734 5733 5734 5735 5736 5738 5738 5737 5734 5732 5730 5728 5726 5724 5720 5717 5714 5714 5711 5713
5661 5666 5667 5667 5679 5683 5690 5706 5713 5716 5719 5723 5724 5726 5728 5728 5726 5726 5724 5725 5725 5725 5725 5725 5724 5724 5724 5726 5727 5729 5730 5729 5727 5724 5722 5721 5719 5717 5714 5710 5705 5702 5702 5701